| time (UTC) | temp C | wind direction | speed KPH | gust KPH | rain 1hr cm | rain 24hr cm | rain mn cm | humidity % | barometer mb |
| 20260506215626 | 8 | 168 | 3.2 | 8.0 | 0.00 | 0.53 | 0.53 | 90 | 1010.0 |
| 20260506214626 | 8 | 172 | 3.2 | 6.4 | 0.00 | 0.53 | 0.53 | 90 | 1009.9 |
| 20260506213626 | 8 | 170 | 1.6 | 4.8 | 0.00 | 0.53 | 0.53 | 90 | 1009.9 |
| 20260506212626 | 8 | 172 | 1.6 | 9.7 | 0.00 | 0.53 | 0.53 | 90 | 1009.8 |
| 20260506211626 | 8 | 167 | 1.6 | 4.8 | 0.00 | 0.53 | 0.53 | 90 | 1009.8 |
| 20260506210626 | 8 | 253 | 3.2 | 9.7 | 0.00 | 0.53 | 0.53 | 90 | 1009.7 |
| 20260506205626 | 9 | 151 | 3.2 | 6.4 | 0.00 | 0.53 | 0.53 | 90 | 1009.6 |
| 20260506204625 | 9 | 147 | 3.2 | 6.4 | 0.00 | 0.53 | 0.53 | 89 | 1009.6 |
| 20260506203625 | 9 | 242 | 3.2 | 12.9 | 0.00 | 0.53 | 0.53 | 90 | 1009.7 |
| 20260506202627 | 9 | 174 | 3.2 | 6.4 | 0.00 | 0.53 | 0.53 | 90 | 1009.7 |
| 20260506201627 | 9 | 153 | 4.8 | 11.3 | 0.00 | 0.53 | 0.53 | 90 | 1009.7 |
| 20260506200627 | 9 | 185 | 3.2 | 9.7 | 0.00 | 0.53 | 0.53 | 89 | 1009.6 |
| 20260506195627 | 9 | 203 | 4.8 | 9.7 | 0.00 | 0.53 | 0.53 | 89 | 1009.5 |
| 20260506194627 | 9 | 176 | 4.8 | 12.9 | 0.00 | 0.53 | 0.53 | 89 | 1009.4 |
| 20260506193627 | 9 | 167 | 4.8 | 14.5 | 0.00 | 0.53 | 0.53 | 89 | 1009.3 |
| 20260506192627 | 9 | 205 | 3.2 | 12.9 | 0.00 | 0.53 | 0.53 | 89 | 1009.0 |
| 20260506191627 | 9 | 176 | 4.8 | 12.9 | 0.00 | 0.53 | 0.53 | 90 | 1008.9 |
| 20260506190626 | 9 | 276 | 4.8 | 11.3 | 0.00 | 0.53 | 0.53 | 90 | 1008.7 |
| 20260506185626 | 9 | 207 | 4.8 | 12.9 | 0.00 | 0.53 | 0.53 | 91 | 1008.6 |
| 20260506184626 | 9 | 162 | 3.2 | 8.0 | 0.00 | 0.53 | 0.53 | 91 | 1008.6 |
| 20260506183626 | 9 | 196 | 3.2 | 6.4 | 0.00 | 0.53 | 0.53 | 91 | 1008.3 |
| 20260506182626 | 10 | 197 | 1.6 | 6.4 | 0.00 | 0.53 | 0.53 | 91 | 1008.2 |
| 20260506181626 | 10 | 227 | 6.4 | 12.9 | 0.00 | 0.53 | 0.53 | 92 | 1008.2 |
| 20260506180626 | 10 | 176 | 4.8 | 11.3 | 0.00 | 0.53 | 0.53 | 91 | 1008.2 |
| 20260506175625 | 10 | 127 | 4.8 | 11.3 | 0.00 | 0.53 | 0.53 | 91 | 1008.0 |
| 20260506174627 | 10 | 219 | 3.2 | 8.0 | 0.00 | 0.53 | 0.53 | 91 | 1007.8 |
| 20260506173627 | 10 | 274 | 4.8 | 9.7 | 0.03 | 0.53 | 0.53 | 91 | 1007.8 |
| 20260506172627 | 10 | 178 | 4.8 | 11.3 | 0.03 | 0.53 | 0.53 | 91 | 1007.6 |
| 20260506171627 | 10 | 144 | 3.2 | 12.9 | 0.03 | 0.53 | 0.53 | 91 | 1007.4 |
| 20260506170627 | 10 | 208 | 4.8 | 16.1 | 0.05 | 0.53 | 0.53 | 91 | 1007.4 |
| 20260506165627 | 10 | 187 | 1.6 | 12.9 | 0.05 | 0.53 | 0.53 | 91 | 1007.3 |
| 20260506164627 | 10 | 266 | 4.8 | 17.7 | 0.05 | 0.53 | 0.53 | 92 | 1007.0 |
| 20260506163627 | 9 | 262 | 4.8 | 19.3 | 0.05 | 0.51 | 0.51 | 92 | 1007.2 |
| 20260506162626 | 9 | 163 | 8.0 | 17.7 | 0.10 | 0.51 | 0.51 | 91 | 1007.1 |
| 20260506161625 | 10 | 145 | 4.8 | 16.1 | 0.13 | 0.51 | 0.51 | 91 | 1007.2 |
| 20260506160625 | 9 | 8 | 8.0 | 19.3 | 0.51 | 0.51 | 0.51 | 91 | 1007.0 |
| 20260506155627 | 10 | 208 | 6.4 | 19.3 | 0.51 | 0.51 | 0.51 | 90 | 1007.0 |
| 20260506154627 | 10 | 158 | 6.4 | 16.1 | 0.51 | 0.51 | 0.51 | 90 | 1006.9 |
| 20260506153627 | 11 | 151 | 9.7 | 25.7 | 0.46 | 0.46 | 0.46 | 89 | 1006.9 |
| 20260506152627 | 11 | 250 | 3.2 | 22.5 | 0.43 | 0.43 | 0.43 | 89 | 1006.5 |
| 20260506151627 | 12 | 255 | 12.9 | 24.1 | 0.41 | 0.41 | 0.41 | 84 | 1005.9 |
| 20260506150627 | 15 | 185 | 8.0 | 17.7 | 0.00 | 0.00 | 0.00 | 72 | 1004.9 |
| 20260506145627 | 16 | 33 | 0.0 | 0.0 | 0.00 | 0.00 | 0.00 | 71 | 1004.4 |
| 20260506144627 | 16 | 33 | 0.0 | 1.6 | 0.00 | 0.00 | 0.00 | 72 | 1004.5 |
| 20260506143627 | 16 | 33 | 1.6 | 6.4 | 0.00 | 0.00 | 0.00 | 71 | 1004.5 |
| 20260506142626 | 17 | 29 | 1.6 | 8.0 | 0.00 | 0.00 | 0.00 | 68 | 1004.6 |
| 20260506141626 | 17 | 142 | 0.0 | 1.6 | 0.00 | 0.00 | 0.00 | 73 | 1004.5 |
| 20260506140626 | 16 | 142 | 0.0 | 3.2 | 0.00 | 0.00 | 0.00 | 72 | 1004.5 |
| 20260506135626 | 16 | 136 | 0.0 | 3.2 | 0.00 | 0.15 | 0.00 | 75 | 1004.4 |
| 20260506134626 | 16 | 131 | 0.0 | 1.6 | 0.00 | 0.15 | 0.00 | 76 | 1004.8 |
| 20260506133626 | 16 | 131 | 1.6 | 3.2 | 0.00 | 0.15 | 0.00 | 76 | 1005.0 |
| 20260506132626 | 16 | 127 | 0.0 | 1.6 | 0.00 | 0.15 | 0.00 | 72 | 1005.1 |
| 20260506131627 | 16 | 126 | 0.0 | 4.8 | 0.00 | 0.15 | 0.00 | 70 | 1005.0 |
| 20260506130627 | 17 | 124 | 1.6 | 6.4 | 0.00 | 0.15 | 0.00 | 67 | 1005.0 |
| 20260506125627 | 17 | 68 | 1.6 | 4.8 | 0.00 | 0.15 | 0.00 | 66 | 1004.9 |
| 20260506124626 | 17 | 72 | 1.6 | 3.2 | 0.00 | 0.15 | 0.00 | 67 | 1004.8 |
| 20260506123626 | 17 | 25 | 0.0 | 3.2 | 0.00 | 0.15 | 0.00 | 68 | 1004.7 |
| 20260506122626 | 17 | 25 | 0.0 | 3.2 | 0.00 | 0.15 | 0.00 | 71 | 1004.7 |
| 20260506121628 | 16 | 25 | 0.0 | 3.2 | 0.00 | 0.15 | 0.00 | 69 | 1004.8 |
| 20260506120628 | 16 | 27 | 0.0 | 6.4 | 0.00 | 0.15 | 0.00 | 70 | 1004.7 |
| 20260506115628 | 17 | 349 | 0.0 | 4.8 | 0.00 | 0.15 | 0.00 | 70 | 1004.8 |
| 20260506114628 | 17 | 324 | 0.0 | 3.2 | 0.00 | 0.15 | 0.00 | 69 | 1005.0 |
| 20260506113627 | 17 | 322 | 1.6 | 3.2 | 0.00 | 0.15 | 0.00 | 69 | 1004.9 |
| 20260506112627 | 17 | 322 | 1.6 | 3.2 | 0.00 | 0.15 | 0.00 | 69 | 1004.9 |
| 20260506111627 | 17 | 356 | 1.6 | 4.8 | 0.00 | 0.15 | 0.00 | 69 | 1005.0 |
| 20260506110627 | 17 | 263 | 1.6 | 4.8 | 0.00 | 0.15 | 0.00 | 69 | 1005.1 |
| 20260506105627 | 17 | 316 | 1.6 | 4.8 | 0.00 | 0.15 | 0.00 | 74 | 1005.2 |
| 20260506104627 | 16 | 343 | 3.2 | 6.4 | 0.00 | 0.15 | 0.00 | 72 | 1005.2 |
| 20260506103627 | 16 | 291 | 1.6 | 4.8 | 0.00 | 0.15 | 0.00 | 75 | 1005.3 |
| 20260506102627 | 15 | 336 | 0.0 | 4.8 | 0.00 | 0.15 | 0.00 | 75 | 1005.3 |
| 20260506101629 | 15 | 245 | 0.0 | 1.6 | 0.00 | 0.15 | 0.00 | 73 | 1005.7 |
| 20260506100629 | 15 | 245 | 1.6 | 3.2 | 0.00 | 0.15 | 0.00 | 72 | 1005.8 |
| 20260506095628 | 15 | 245 | 3.2 | 6.4 | 0.00 | 0.15 | 0.00 | 71 | 1006.0 |
| 20260506094628 | 16 | 246 | 1.6 | 4.8 | 0.00 | 0.15 | 0.00 | 72 | 1006.0 |
| 20260506093628 | 15 | 253 | 0.0 | 3.2 | 0.00 | 0.15 | 0.00 | 71 | 1005.9 |
| 20260506092628 | 16 | 253 | 3.2 | 4.8 | 0.00 | 0.15 | 0.00 | 71 | 1006.1 |
| 20260506091628 | 16 | 253 | 1.6 | 3.2 | 0.00 | 0.15 | 0.00 | 72 | 1006.0 |
| 20260506090628 | 15 | 253 | 1.6 | 3.2 | 0.00 | 0.15 | 0.00 | 73 | 1005.9 |
| 20260506085628 | 15 | 253 | 0.0 | 3.2 | 0.00 | 0.15 | 0.00 | 77 | 1005.9 |
| 20260506084627 | 14 | 253 | 1.6 | 3.2 | 0.00 | 0.15 | 0.00 | 77 | 1005.8 |
| 20260506083627 | 14 | 253 | 0.0 | 1.6 | 0.00 | 0.15 | 0.00 | 80 | 1005.8 |
| 20260506082628 | 13 | 253 | 1.6 | 4.8 | 0.00 | 0.15 | 0.00 | 80 | 1005.9 |
| 20260506081628 | 13 | 254 | 1.6 | 3.2 | 0.00 | 0.15 | 0.00 | 81 | 1005.9 |
| 20260506080628 | 13 | 211 | 0.0 | 3.2 | 0.00 | 0.15 | 0.00 | 82 | 1005.9 |
| 20260506072628 | 13 | 176 | 1.6 | 3.2 | 0.00 | 0.15 | 0.00 | 83 | 1006.3 |
| 20260506071627 | 12 | 176 | 1.6 | 4.8 | 0.00 | 0.15 | 0.00 | 84 | 1006.5 |
| 20260506070627 | 12 | 174 | 0.0 | 3.2 | 0.00 | 0.15 | 0.00 | 85 | 1006.3 |
| 20260506061627 | 11 | 110 | 0.0 | 4.8 | 0.00 | 0.15 | 0.00 | 89 | 1006.1 |
| 20260506060627 | 11 | 60 | 0.0 | 3.2 | 0.00 | 0.15 | 0.00 | 90 | 1006.2 |
| 20260506050628 | 9 | 180 | 0.0 | 0.0 | 0.00 | 0.15 | 0.00 | 92 | 1006.3 |
| 20260506044628 | 8 | 180 | 0.0 | 0.0 | 0.00 | 0.15 | 0.00 | 92 | 1006.5 |
| 20260506043628 | 8 | 180 | 0.0 | 0.0 | 0.00 | 0.15 | 0.00 | 91 | 1006.5 |
| 20260506042628 | 8 | 180 | 0.0 | 0.0 | 0.00 | 0.15 | 0.00 | 91 | 1006.6 |
| 20260506041628 | 9 | 180 | 0.0 | 0.0 | 0.00 | 0.15 | 0.00 | 91 | 1006.6 |
| 20260506040627 | 9 | 180 | 0.0 | 0.0 | 0.00 | 0.15 | 0.00 | 91 | 1006.9 |
| 20260506035627 | 9 | 180 | 0.0 | 0.0 | 0.00 | 0.15 | 0.00 | 91 | 1006.8 |
| 20260506034627 | 10 | 180 | 0.0 | 0.0 | 0.00 | 0.15 | 0.00 | 91 | 1006.9 |
| 20260506033627 | 10 | 180 | 0.0 | 3.2 | 0.00 | 0.15 | 0.00 | 91 | 1007.0 |
| 20260506032627 | 10 | 180 | 1.6 | 3.2 | 0.00 | 0.15 | 0.00 | 91 | 1007.1 |
| 20260506031627 | 10 | 180 | 0.0 | 3.2 | 0.00 | 0.15 | 0.00 | 91 | 1007.1 |
| 20260506030627 | 10 | 179 | 1.6 | 3.2 | 0.00 | 0.15 | 0.00 | 92 | 1007.2 |
| 20260506025627 | 10 | 181 | 0.0 | 3.2 | 0.00 | 0.15 | 0.00 | 92 | 1007.2 |
| 20260506024627 | 10 | 178 | 1.6 | 3.2 | 0.00 | 0.15 | 0.00 | 92 | 1007.3 |
| 20260506023627 | 9 | 178 | 1.6 | 3.2 | 0.00 | 0.15 | 0.00 | 92 | 1007.5 |
| 20260506022628 | 9 | 175 | 0.0 | 0.0 | 0.00 | 0.15 | 0.00 | 91 | 1007.4 |
| 20260506021628 | 9 | 175 | 0.0 | 0.0 | 0.00 | 0.15 | 0.00 | 92 | 1007.6 |
| 20260506020628 | 9 | 175 | 0.0 | 0.0 | 0.00 | 0.15 | 0.00 | 91 | 1007.6 |
| 20260506015628 | 9 | 175 | 0.0 | 0.0 | 0.00 | 0.15 | 0.00 | 91 | 1007.4 |
| 20260506014628 | 10 | 175 | 0.0 | 0.0 | 0.00 | 0.15 | 0.00 | 91 | 1007.5 |
| 20260506013628 | 10 | 175 | 0.0 | 1.6 | 0.00 | 0.15 | 0.00 | 91 | 1007.4 |
| 20260506012627 | 10 | 175 | 0.0 | 1.6 | 0.00 | 0.15 | 0.00 | 91 | 1007.6 |
| 20260506011627 | 10 | 174 | 0.0 | 3.2 | 0.00 | 0.15 | 0.00 | 91 | 1007.9 |
| 20260506010627 | 10 | 187 | 1.6 | 4.8 | 0.00 | 0.15 | 0.00 | 91 | 1008.1 |
| 20260506005627 | 10 | 181 | 4.8 | 6.4 | 0.00 | 0.15 | 0.00 | 91 | 1007.9 |
| 20260506004627 | 10 | 200 | 1.6 | 4.8 | 0.00 | 0.15 | 0.00 | 91 | 1007.8 |
| 20260506003628 | 10 | 198 | 1.6 | 3.2 | 0.00 | 0.15 | 0.00 | 91 | 1007.7 |
| 20260506002628 | 10 | 201 | 1.6 | 4.8 | 0.00 | 0.15 | 0.00 | 91 | 1007.9 |
| 20260506001627 | 10 | 195 | 0.0 | 3.2 | 0.00 | 0.15 | 0.00 | 91 | 1007.9 |
| 20260506000627 | 10 | 188 | 1.6 | 6.4 | 0.00 | 0.15 | 0.00 | 91 | 1008.0 |
| 20260505235627 | 10 | 192 | 3.2 | 9.7 | 0.00 | 0.15 | 0.00 | 91 | 1007.9 |
| 20260505234627 | 10 | 184 | 3.2 | 6.4 | 0.00 | 0.15 | 0.00 | 91 | 1008.2 |
| 20260505233627 | 10 | 185 | 1.6 | 3.2 | 0.00 | 0.15 | 0.00 | 91 | 1008.2 |
| 20260505232627 | 10 | 202 | 1.6 | 3.2 | 0.00 | 0.15 | 0.00 | 90 | 1008.4 |
| 20260505231627 | 10 | 204 | 1.6 | 3.2 | 0.00 | 0.15 | 0.00 | 90 | 1008.4 |
| 20260505230627 | 10 | 199 | 0.0 | 3.2 | 0.00 | 0.15 | 0.00 | 89 | 1008.5 |
| 20260505225627 | 10 | 200 | 1.6 | 3.2 | 0.00 | 0.15 | 0.00 | 89 | 1008.5 |
| 20260505224627 | 10 | 198 | 1.6 | 4.8 | 0.00 | 0.15 | 0.00 | 88 | 1008.4 |
| 20260505223627 | 11 | 194 | 1.6 | 4.8 | 0.00 | 0.15 | 0.00 | 88 | 1008.6 |
| 20260505222626 | 11 | 185 | 0.0 | 3.2 | 0.00 | 0.15 | 0.00 | 87 | 1008.5 |
| 20260505221626 | 11 | 183 | 3.2 | 6.4 | 0.00 | 0.15 | 0.00 | 87 | 1008.4 |
| 20260505220628 | 11 | 198 | 1.6 | 4.8 | 0.00 | 0.15 | 0.00 | 86 | 1008.3 |